Home   Weather   Vietnam   Hanoi   Past weeks
Flag for Vietnam

Past Weather in Hanoi, Vietnam — Yesterday and Last 2 Weeks

Currently: 68 °F. Fog. (Weather station: Ha Noi Airport, Vietnam). See more current weather

Past Weather in Hanoi — Graph

°F

Hanoi Temperature Yesterday

Maximum temperature yesterday: 68 °F (at 2:30 pm)
Minimum temperature yesterday: 57 °F (at 4:30 am)
Average temperature yesterday: 62 °F

High & Low Weather Summary for the Past Weeks

 TemperatureHumidityPressure
High81 °F (Feb 19, 11:30 am)100% (Feb 19, 4:30 am)30.30 "Hg (Feb 19, 4:30 am)
Low52 °F (Feb 25, 8:00 am)55% (Mar 2, 12:00 pm)29.65 "Hg (Mar 4, 3:00 pm)
Average63 °F86%30.01 "Hg
* Reported Feb 18 7:00 pm — Mar 4 7:00 pm, Hanoi. Weather by CustomWeather, © 2024

Note: Actual official high and low records may vary slightly from our data, if they occured in-between our weather recording intervals... More about our weather records

Hanoi Weather History for the Previous 24 Hours

Scroll right to see more
 ConditionsComfort  
Time TempWeatherWind HumidityBarometerVisibility
7:00 pm
Mon, Mar 4
68 °FFog.2 mph88%29.68 "Hg2 mi
6:30 pm68 °FFog.2 mph88%29.65 "Hg2 mi
6:00 pm68 °FFog.2 mph88%29.65 "Hg2 mi
5:30 pm68 °FFog.3 mph88%29.65 "Hg2 mi
5:00 pm68 °FFog.3 mph88%29.65 "Hg2 mi
4:30 pm68 °FFog.5 mph88%29.65 "Hg1 mi
4:00 pm68 °FFog.6 mph83%29.65 "Hg1 mi
3:30 pm68 °FFog.5 mph88%29.65 "Hg2 mi
3:00 pm68 °FFog.2 mph88%29.65 "Hg2 mi
2:30 pm68 °FFog.3 mph83%29.68 "Hg2 mi
2:00 pm68 °FFog.5 mph83%29.68 "Hg2 mi
1:30 pm68 °FFog.3 mph83%29.71 "Hg2 mi
1:00 pm66 °FFog.2 mph88%29.74 "Hg2 mi
12:30 pm66 °FFog.1 mph88%29.77 "Hg2 mi
12:00 pm64 °FFog.2 mph94%29.77 "Hg2 mi
11:30 am64 °FFog.No wind94%29.80 "Hg2 mi
11:00 am63 °FDrizzle. Fog.2 mph100%29.83 "Hg1 mi
10:30 am63 °FDrizzle. Fog.2 mph94%29.83 "Hg1 mi
10:00 am61 °FDrizzle. Fog.2 mph100%29.86 "Hg1 mi
9:30 am61 °FDrizzle. Fog.3 mph100%29.86 "Hg1 mi
9:00 am61 °FDrizzle. Fog.3 mph100%29.86 "Hg1 mi
8:30 am61 °FDrizzle. Fog.5 mph100%29.86 "Hg1 mi
8:00 am61 °FDrizzle. Fog.6 mph94%29.86 "Hg1 mi
7:30 am61 °FDrizzle. Fog.6 mph94%29.86 "Hg1 mi
7:00 am61 °FDrizzle. Fog.6 mph94%29.83 "Hg1 mi
6:30 am61 °FDrizzle. Fog.6 mph94%29.83 "Hg1 mi
6:00 am61 °FDrizzle. Fog.5 mph94%29.80 "Hg1 mi
5:30 am61 °FDrizzle. Fog.1 mph100%29.80 "Hg1 mi
5:00 am61 °FDrizzle. Fog.2 mph100%29.80 "Hg1 mi
4:30 am61 °FDrizzle. Fog.2 mph100%29.80 "Hg1 mi
4:00 am61 °FDrizzle. Fog.3 mph100%29.77 "Hg1 mi
3:00 am61 °FDrizzle. Fog.3 mph100%29.77 "Hg1 mi
2:30 am61 °FDrizzle. Fog.6 mph100%29.80 "Hg1 mi
2:00 am61 °FDrizzle. Fog.6 mph100%29.80 "Hg1 mi
1:30 am61 °FDrizzle. Fog.7 mph100%29.80 "Hg2 mi
1:00 am61 °FDrizzle. Fog.6 mph100%29.83 "Hg2 mi
12:30 am63 °FDrizzle. Fog.5 mph94%29.83 "Hg2 mi
12:00 am63 °FDrizzle. Fog.8 mph94%29.86 "Hg2 mi
11:30 pm
Sun, Mar 3
63 °FFog.8 mph94%29.86 "Hg3 mi
11:00 pm63 °FDrizzle. Fog.8 mph94%29.86 "Hg3 mi
10:30 pm63 °FFog.9 mph94%29.86 "Hg3 mi
10:00 pm63 °FFog.9 mph94%29.89 "Hg3 mi
9:30 pm64 °FOvercast.10 mph88%29.86 "Hg4 mi
8:30 pm64 °FOvercast.2 mph83%29.86 "Hg4 mi
8:00 pm64 °FOvercast.5 mph83%29.86 "Hg4 mi
Weather by CustomWeather, © 2024

See weather overview